BEAK

Last updated on Sat Jun 29 2024 00:02:06 GMT+0000 (Coordinated Universal Time)

1 58612U 98067WD 24180.52903188 .07163196 12401-4 73013-3 0 9995 2 58612 51.6106 230.8791 0006733 324.8246 35.2334 16.37044924 30419

Satellite not in orbit